Theta_e
348 343 342 343 340 339 332 334 334 331 325 321 321 320 323 323 322 322 320 320 321 318
346 345 342 344 339 328 331 327 326 323 318 318 319 320 320 319 318 319 320 321 322 320
345 346 342 335 332 330 327 325 322 320 317 317 318 318 319 319 320 321 319 319 320 318
339 335 334 331 328 323 323 320 317 316 314 315 316 317 317 318 319 319 319 319 317 314
330 331 328 327 324 323 319 318 316 315 316 316 316 318 318 318 317 317 316 316 316 314
327 324 321 319 318 317 318 315 316 316 315 316 316 316 316 316 315 315 315 315 314 314
324 318 313 313 316 316 318 317 316 316 316 316 315 315 315 316 316 316 315 315 314 314
317 312 312 313 316 316 315 315 315 315 314 313 311 306 312 316 316 316 316 316 314 314
315 317 316 314 315 315 314 314 314 314 313 311 305 297 298 305 316 316 315 314 314 313
317 314 313 314 314 314 314 314 313 313 312 309 306 296 296 299 315 315 313 313 311 310
313 312 313 313 312 313 313 313 313 312 312 309 301 295 295 297 314 314 312 311 307 307
313 312 312 311 312 312 312 311 311 310 310 308 301 293 294 300 311 310 310 309 307 303
313 311 310 311 311 311 311 309 308 307 306 299 303 292 292 295 303 306 303 308 306 292
311 310 310 310 310 310 309 308 306 304 303 302 296 297 291 292 299 298 300 300 300 301
Wind_Speed
19 12 10 7 9 7 8 7 8 9 9 11 9 6 4 4 3 4 3 5 5 6
15 14 12 13 14 9 10 9 8 9 9 11 8 5 4 4 4 2 3 3 7 7
16 13 14 13 13 12 11 11 8 10 11 10 7 6 4 3 2 2 4 5 8 8
13 15 14 13 14 13 12 10 10 11 10 9 8 7 5 4 4 6 8 8 8 8
14 15 15 14 14 13 12 11 11 10 9 9 8 6 5 7 7 9 8 7 7 7
16 15 15 15 14 13 12 11 11 10 10 8 7 7 8 7 7 6 7 7 6 7
17 16 15 14 13 10 12 13 11 10 9 9 8 8 7 6 6 6 6 6 6 9
18 16 14 13 14 14 13 11 11 10 10 10 10 9 9 6 7 7 6 7 8 7
17 17 15 14 14 13 13 12 11 10 10 10 9 12 13 12 6 7 7 7 8 9
17 17 15 14 13 13 12 11 10 10 10 10 10 13 12 13 6 6 8 9 11 11
17 16 15 14 14 12 11 10 9 9 9 10 11 16 15 15 6 7 7 8 10 12
16 16 15 14 13 11 11 10 10 9 10 11 12 17 17 16 5 7 6 7 8 11
16 15 15 13 13 11 10 10 9 11 10 11 9 16 18 16 6 6 7 5 5 20
16 15 13 13 11 10 11 10 9 10 9 10 11 11 15 17 8 8 7 8 8 9
Wind_Direction
143 148 151 135 119 114 81 107 93 85 81 89 75 65 68 72 6 18 339 333 339 340
145 148 118 112 89 96 102 103 98 104 93 80 82 73 65 55 16 343 316 11 16 353
143 132 108 106 116 106 106 106 114 93 83 78 77 60 45 61 29 16 22 22 14 356
111 111 116 115 113 104 109 111 93 80 78 75 71 62 56 62 35 37 28 19 16 353
111 120 113 111 110 115 107 98 93 91 85 76 70 64 63 47 32 27 17 8 3 6
116 114 109 106 106 110 105 96 84 76 72 73 67 62 50 36 34 30 24 19 15 1
112 109 106 105 106 99 92 85 82 78 76 69 62 53 50 42 34 35 41 21 5 12
110 106 102 103 100 89 86 88 91 90 83 76 61 30 356 34 37 26 22 27 8 14
118 115 110 103 97 94 91 89 87 81 77 70 59 6 1 343 29 29 23 15 8 354
114 108 106 103 101 97 96 99 95 91 85 70 50 9 356 336 39 29 22 18 8 355
112 110 107 105 104 107 103 100 95 85 74 64 48 12 355 336 14 25 24 17 16 359
111 110 109 105 103 103 101 95 86 74 60 55 43 12 1 343 7 14 18 6 29 10
107 106 106 105 102 101 99 92 84 74 63 43 43 26 8 0 357 13 345 351 41 64
103 102 104 104 102 98 92 93 89 83 69 62 39 43 20 8 14 358 341 2 358 14